Weather History for KBBB - October, 2012

Change the Weather History Date:

Thursday, October 4, 2012

  Actual Average Record
Temperature  
Mean Temperature 50 °F -  
Max Temperature 64 °F 64 °F 86 °F (1975)
Min Temperature 37 °F 40 °F 24 °F (1968)
Degree Days  
Heating Degree Days 14    
Moisture  
Dew Point 34 °F    
Average Humidity 71    
Maximum Humidity 87    
Minimum Humidity 32    
Precipitation  
Precipitation 0.00 in - - ()
Sea Level Pressure  
Sea Level Pressure 30.02 in    
Wind  
Wind Speed 21 mph (NW)    
Max Wind Speed 34 mph    
Max Gust Speed 44 mph    
Visibility 10 miles    
Events Rain    
Averages and records for this station are not official NWS values.
T = Trace of Precipitation, MM = Missing Value Source: NWS Daily Summary

Daily Weather History Graph

Daily Weather History Graph

Search for Another Location

Airport or City:

Trip Planner

Search our weather history database for the weather conditions in past years. The results will help you decide how hot, cold, wet, or windy it might be!

Date:

Astronomy

Oct. 04, 2012 Rise Set
Actual Time 7:25 AM CDT 6:56 PM CDT
Civil Twilight 6:55 AM CDT 7:25 PM CDT
Nautical Twilight 6:21 AM CDT 7:59 PM CDT
Astronomical Twilight 5:46 AM CDT 8:34 PM CDT
Moon 9:19 PM CDT (10/4) 11:56 AM CDT (10/4)
Length of Visible Light 12h 30m
Length of Day
11h 31m
Waning Gibbous, 82% of the Moon is Illuminated
Oct 4
Waning Gibbous
Oct 8
Last Quarter
Oct 15
New
Oct 21
First Quarter
Oct 29
Full

Hourly Weather History & Observations

Time (CDT) Temp. Windchill Dew Point Humidity Pressure Visibility Wind Dir Wind Speed Gust Speed Precip Events Conditions
12:13 AM 64.4 °F - 33.8 °F 32% 29.69 in 10.0 mi South 10.4 mph 18.4 mph N/A   Clear
12:32 AM 62.6 °F - 33.8 °F 34% 29.68 in 10.0 mi South 10.4 mph - N/A   Clear
12:53 AM 62.6 °F - 33.8 °F 34% 29.67 in 10.0 mi SSW 9.2 mph - N/A   Clear
1:12 AM 60.8 °F - 35.6 °F 39% 29.68 in 10.0 mi WSW 10.4 mph - N/A   Clear
1:32 AM 53.6 °F - 37.4 °F 54% 29.68 in 7.0 mi West 9.2 mph - N/A   Clear
1:53 AM 50.0 °F - 41.0 °F 71% 29.71 in 10.0 mi WNW 18.4 mph 28.8 mph N/A   Clear
2:13 AM 48.2 °F - 41.0 °F 76% 29.74 in 10.0 mi NW 21.9 mph 29.9 mph N/A   Clear
2:33 AM 46.4 °F 38.5 °F 39.2 °F 76% 29.76 in 10.0 mi NW 21.9 mph 34.5 mph N/A   Clear
2:53 AM 46.4 °F 38.3 °F 39.2 °F 76% 29.77 in 10.0 mi NW 23.0 mph 38.0 mph N/A   Mostly Cloudy
3:12 AM 46.4 °F 38.3 °F 39.2 °F 76% 29.78 in 10.0 mi NW 23.0 mph 36.8 mph N/A   Overcast
3:33 AM 44.6 °F 35.1 °F 39.2 °F 81% 29.79 in 10.0 mi NW 27.6 mph 41.4 mph N/A   Overcast
3:53 AM 44.6 °F 35.1 °F 39.2 °F 81% 29.80 in 10.0 mi NW 27.6 mph 40.3 mph N/A   Overcast
4:12 AM 44.6 °F 34.6 °F 39.2 °F 81% 29.82 in 10.0 mi NW 31.1 mph 39.1 mph N/A   Overcast
4:33 AM 42.8 °F 31.9 °F 39.2 °F 87% 29.84 in 10.0 mi NW 32.2 mph 39.1 mph N/A   Overcast
4:53 AM 42.8 °F 32.3 °F 37.4 °F 81% 29.86 in 10.0 mi NW 29.9 mph 41.4 mph N/A   Overcast
5:12 AM 39.2 °F 27.2 °F 35.6 °F 87% 29.87 in 10.0 mi NW 31.1 mph 40.3 mph N/A   Overcast
5:33 AM 39.2 °F 27.8 °F 35.6 °F 87% 29.89 in 10.0 mi NW 27.6 mph 36.8 mph N/A   Overcast
5:53 AM 39.2 °F 26.6 °F 33.8 °F 81% 29.89 in 10.0 mi NW 34.5 mph 41.4 mph N/A   Overcast
6:12 AM 39.2 °F 28.3 °F 33.8 °F 81% 29.90 in 10.0 mi NNW 25.3 mph 41.4 mph N/A   Overcast
6:33 AM 37.4 °F 25.2 °F 33.8 °F 87% 29.92 in 10.0 mi NNW 28.8 mph 42.6 mph N/A   Overcast
6:53 AM 37.4 °F 26.6 °F 32.0 °F 81% 29.93 in 10.0 mi NNW 21.9 mph 38.0 mph N/A   Overcast
7:12 AM 37.4 °F 25.6 °F 32.0 °F 81% 29.94 in 10.0 mi NNW 26.5 mph 34.5 mph N/A   Overcast
7:38 AM 37.4 °F 25.6 °F 33.8 °F 87% 29.96 in 10.0 mi NNW 26.5 mph 35.7 mph N/A   Overcast
7:52 AM 37.4 °F 25.2 °F 33.8 °F 87% 29.97 in 10.0 mi NW 28.8 mph 38.0 mph N/A   Overcast
8:13 AM 37.4 °F 25.9 °F 33.8 °F 87% 29.98 in 5.0 mi NNW 25.3 mph 36.8 mph N/A   Overcast
8:33 AM 37.4 °F 25.6 °F 33.8 °F 87% 29.99 in 3.0 mi NNW 26.5 mph 36.8 mph N/A   Overcast
8:52 AM 37.4 °F 26.1 °F 33.8 °F 87% 30.00 in 10.0 mi NNW 24.2 mph 34.5 mph N/A   Overcast
9:12 AM 37.4 °F 25.4 °F 33.8 °F 87% 30.01 in 10.0 mi NNW 27.6 mph 35.7 mph N/A   Overcast
9:33 AM 39.2 °F 28.0 °F 32.0 °F 75% 30.02 in 10.0 mi NNW 26.5 mph 40.3 mph N/A   Overcast
9:52 AM 39.2 °F 27.2 °F 32.0 °F 75% 30.03 in 10.0 mi NNW 31.1 mph 36.8 mph N/A   Overcast
10:13 AM 39.2 °F 27.8 °F 32.0 °F 75% 30.05 in 10.0 mi NNW 27.6 mph 38.0 mph N/A   Overcast
10:33 AM 41.0 °F 29.8 °F 32.0 °F 70% 30.05 in 10.0 mi NNW 29.9 mph 43.7 mph N/A   Overcast
10:52 AM 42.8 °F 32.9 °F 32.0 °F 66% 30.06 in 10.0 mi NNW 26.5 mph 41.4 mph N/A   Overcast
11:33 AM 42.8 °F 33.1 °F 32.0 °F 66% 30.08 in 10.0 mi NNW 25.3 mph 34.5 mph N/A   Overcast
11:52 AM 42.8 °F 33.3 °F 32.0 °F 66% 30.08 in 10.0 mi NNW 24.2 mph 40.3 mph N/A   Overcast
12:13 PM 42.8 °F 32.3 °F 32.0 °F 66% 30.09 in 10.0 mi NNW 29.9 mph 39.1 mph N/A   Overcast
12:33 PM 42.8 °F 32.9 °F 32.0 °F 66% 30.10 in 10.0 mi NNW 26.5 mph 39.1 mph N/A   Overcast
12:52 PM 42.8 °F 32.3 °F 32.0 °F 66% 30.11 in 10.0 mi NNW 29.9 mph 35.7 mph N/A   Overcast
1:13 PM 42.8 °F 32.5 °F 30.2 °F 61% 30.10 in 10.0 mi NNW 28.8 mph 38.0 mph N/A   Overcast
1:33 PM 44.6 °F 35.5 °F 30.2 °F 57% 30.11 in 10.0 mi NNW 25.3 mph 38.0 mph N/A   Overcast
1:52 PM 42.8 °F 32.5 °F 30.2 °F 61% 30.12 in 10.0 mi NNW 28.8 mph 38.0 mph N/A   Overcast
2:13 PM 44.6 °F 34.9 °F 30.2 °F 57% 30.12 in 10.0 mi NNW 28.8 mph 36.8 mph N/A   Overcast
2:32 PM 44.6 °F 34.9 °F 30.2 °F 57% 30.12 in 10.0 mi NNW 28.8 mph 34.5 mph N/A   Overcast
2:52 PM 44.6 °F 34.9 °F 30.2 °F 57% 30.13 in 10.0 mi NNW 28.8 mph 40.3 mph N/A   Overcast
3:13 PM 44.6 °F 35.1 °F 30.2 °F 57% 30.13 in 10.0 mi NNW 27.6 mph 39.1 mph N/A   Overcast
3:33 PM 44.6 °F 35.7 °F 30.2 °F 57% 30.13 in 10.0 mi NNW 24.2 mph 34.5 mph N/A   Overcast
3:52 PM 44.6 °F 35.5 °F 30.2 °F 57% 30.14 in 10.0 mi NNW 25.3 mph 35.7 mph N/A   Overcast
4:13 PM 44.6 °F 35.5 °F 30.2 °F 57% 30.15 in 10.0 mi North 25.3 mph 34.5 mph N/A   Overcast
4:32 PM 46.4 °F 39.5 °F 30.2 °F 53% 30.15 in 10.0 mi NNW 17.3 mph 29.9 mph N/A   Overcast
4:53 PM 44.6 °F 35.9 °F 30.2 °F 57% 30.16 in 10.0 mi North 23.0 mph 32.2 mph N/A   Overcast
5:13 PM 44.6 °F 35.7 °F 30.2 °F 57% 30.16 in 10.0 mi NNW 24.2 mph 31.1 mph N/A   Overcast
5:32 PM 44.6 °F 36.4 °F 30.2 °F 57% 30.16 in 10.0 mi NNW 20.7 mph 25.3 mph N/A   Overcast
5:53 PM 44.6 °F 36.4 °F 32.0 °F 61% 30.17 in 10.0 mi NNW 20.7 mph 27.6 mph N/A   Overcast
6:13 PM 44.6 °F 36.1 °F 32.0 °F 61% 30.17 in 10.0 mi NNW 21.9 mph 28.8 mph N/A   Overcast
6:32 PM 42.8 °F 34.3 °F 33.8 °F 70% 30.17 in 10.0 mi NNW 19.6 mph - N/A   Overcast
6:53 PM 42.8 °F 34.8 °F 33.8 °F 70% 30.17 in 10.0 mi NW 17.3 mph 23.0 mph N/A   Overcast
7:13 PM 42.8 °F 34.3 °F 33.8 °F 70% 30.18 in 10.0 mi NW 19.6 mph 24.2 mph N/A   Overcast
7:32 PM 39.2 °F 30.8 °F 35.6 °F 87% 30.19 in 7.0 mi NNW 15.0 mph 27.6 mph N/A Rain Rain
8:13 PM 39.2 °F 30.2 °F 33.8 °F 81% 30.19 in 10.0 mi NNW 17.3 mph 23.0 mph N/A   Overcast
8:32 PM 39.2 °F 31.6 °F 33.8 °F 81% 30.19 in 10.0 mi NNW 12.7 mph 20.7 mph N/A   Mostly Cloudy
8:53 PM 39.2 °F 30.8 °F 33.8 °F 81% 30.20 in 10.0 mi NNW 15.0 mph 21.9 mph N/A   Overcast
9:13 PM 39.2 °F 31.2 °F 33.8 °F 81% 30.20 in 10.0 mi NNW 13.8 mph - N/A   Overcast
9:32 PM 39.2 °F 33.0 °F 33.8 °F 81% 30.21 in 10.0 mi NNW 9.2 mph - N/A   Overcast
9:53 PM 39.2 °F 32.5 °F 33.8 °F 81% 30.21 in 10.0 mi NNW 10.4 mph - N/A   Overcast
10:12 PM 39.2 °F 32.5 °F 33.8 °F 81% 30.21 in 10.0 mi NNW 10.4 mph - N/A   Overcast
10:33 PM 39.2 °F 31.6 °F 32.0 °F 75% 30.21 in 10.0 mi NW 12.7 mph - N/A   Overcast
10:53 PM 39.2 °F 32.5 °F 32.0 °F 75% 30.21 in 10.0 mi NW 10.4 mph - N/A   Overcast
11:12 PM 39.2 °F 31.6 °F 33.8 °F 81% 30.21 in 10.0 mi NW 12.7 mph 16.1 mph N/A   Overcast
11:33 PM 41.0 °F 33.1 °F 33.8 °F 76% 30.20 in 10.0 mi NW 15.0 mph - N/A   Overcast
11:53 PM 41.0 °F 32.2 °F 30.2 °F 65% 30.20 in 10.0 mi NW 18.4 mph 27.6 mph N/A   Overcast